Location: Eferding
(48.3167°N, 14.0167°E)
Time: 15:35:28
(UTC+00:00)

Cosmos 2084 - Pass Details

Date: 12 November 2019
Orbit: 557 x 626 km, 62.8° (Epoch: 06 December)

Event Time Altitude Azimuth Distance (km) Brightness Sun altitude
Rises 17:25:49 0° 314° (NW) 2,835 7.6 -19.4°
Reaches altitude 10° 17:28:09 10° 308° (NW) 1,917 6.7 -19.7°
Maximum altitude 17:32:17 47° 235° (SW) 775 4.4 -20.4°
Enters shadow 17:35:51 13° 164° (SSE) 1,687 5.7 -21.0°
